Weather in Dmitriyevskoye

Russia / Yaroslavl Oblast     57°59′47″N   40°10′39″E
temp.,
°C
wind,
m/s
gust,
m/s
humid.,
%
clouds,
%
prec.,
mm/h
press.,
hPa
HPBL,
m
16 january, sun
sun1600:00−6nnw6148998 0.2 997847
03:00−6nw61490100 0.2 1000631
06:00−5nnw61189100 0.1 1001734
09:00−6nw5108799 0.2 1004704
12:00−7wnw499296 0.0 1005448
15:00−9w399390 0.0 1005282
18:00−8wsw41195100 0.0 1003327
21:00−6sw5149298 0.1 1000502
17 january, mon
mon1700:00−7sw5159297 0.0 997502
03:00−8ssw61494100 0.1 994435
06:00−5ssw61594100 0.3 989599
09:00−4ssw61395100 1.6 986647
12:00−4ssw61295100 1.2 985678
15:00−4ssw51196100 2.8 983659
18:00−4ssw51196100 0.9 983579
21:00−3s41097100 1.9 984488
18 january, tue
tue1800:00−4ssw3997100 0.8 985327
03:00−5s1198100 1.1 98811
06:00−4nw2497100 0.7 991146
09:00−6nnw51093100 1.3 995404
12:00−7nnw6138989 0.1 999490
15:00−8nnw5129099 0.1 1003480
18:00−9nnw5129290 0.0 1007403
21:00−11nw4109485 0.0 1010300
19 january, wed
wed1900:00−13nw399581 0.0 1012227
03:00−17wnw259971 0.0 101379
06:00−17nw269969 0.0 101489
09:00−19nw2210083 0.1 101629
12:00−13nw129442 0.0 101699
15:00−13s119737 0.0 101511
18:00−20sw2210069 0.0 101719
21:00−21ssw25100100 0.0 101663
20 january, thu
thu2000:00−20s3910089 0.0 1015122
03:00−16s41196100 0.0 1014232
06:00−14s51490100 0.0 1013331
09:00−12s61686100 0.0 1013424
12:00−10s61693100 0.3 1012477
15:00−9s71693100 1.3 1011543
18:00−9s61694100 0.8 1012581
21:00−9s61694100 1.6 1012555